User: anonymous
Location: Vallejo Observatory
(38.1221°N, 122.2109°W)
Time: 06:02:55
(UTC-07:00)
Language:

MOS 1 Rocket - Orbit

View from above orbital plane
View from above orbital plane
View from above satellite
View from above satellite

Ground track
Ground track

The orbit data is extracted from the following two-line orbital elements,

1 17528U 87018B   14292.77141705  .00000761  00000-0  17698-3 0  5069
2 17528 097.4502 347.9410 0155171 102.8912 010.8215 14.50097667459058
Epoch (UTC): 19 October 2014 18:30:50
Eccentricity: 0.0155171
inclination: 97.4502°
perigee height: 615 km
apogee height: 835 km
right ascension of ascending node: 347.9410°
argument of perigee: 102.8912°
revolutions per day: 14.50097667
mean anomaly at epoch: 10.8215°
orbit number at epoch: 45905

The dashed part of the orbit path shows where the satellite is in the earth's shadow,  

DLR